Flag for Canada Weather past 2 weeks in Iqaluit, Nunavut Territory, Canada

Now
-17 °F

Clear.


Feels Like: -31 °F
Forecast: -19 / -4 °F
Wind: 6 mph from North

Location: Iqaluit

Current Time: Mar 29, 2015 at 9:41:30 PM

Latest Report: Mar 29, 2015 at 9:00 PM


Visibility: 15 mi

Pressure: 29.64 "Hg

Humidity: 69%

Dew point: -24 °F

Location of IqaluitLocation

Historic Weather in Iqaluit — Graph

°F

Iqaluit temperature yesterday

Maximum temperature yesterday: 3 °F (at 4:00 PM)
Minimum temperature yesterday: -9 °F (at 12:00 AM)
Average temperature yesterday: -4 °F

Past Weeks' High & Low Weather Summary

 TemperatureHumidityPressure
High21 °F (Mar 16, 11:00 AM)86% (Mar 17, 1:00 AM)30.11 "Hg (Mar 17, 1:00 AM)
Low-24 °F (Mar 15, 3:00 AM)57% (Mar 14, 8:00 PM)29.35 "Hg (Mar 28, 2:00 PM)
Average-5 °F69%29.75 "Hg
* Reported Mar 14 8:00 PM — Mar 29 8:00 PM, Iqaluit, Weather by CustomWeather, © 2015

Note: Actual official high and low records may vary slightly from our data, if they occured in-between our weather recording intervals... More about our weather records

Advertising

Iqaluit weather history for previous 24 hours

 ConditionsComfort  
Time TempWeatherWind HumidityBarometerVisibility
8:00 PM
Sun, Mar 29
-15 °FSunny.8 mph69%29.65 "Hg20 mi
7:00 PM-13 °FSunny.5 mph63%29.64 "Hg30 mi
6:00 PM-11 °FSunny.7 mph63%29.64 "Hg30 mi
5:00 PM-9 °FSunny.12 mph64%29.63 "Hg30 mi
4:00 PM-9 °FSunny.3 mph64%29.63 "Hg30 mi
3:00 PM-8 °FSunny.3 mph64%29.61 "Hg30 mi
2:00 PM-9 °FSunny.5 mph64%29.61 "Hg30 mi
1:00 PM-8 °FSunny.5 mph58%29.61 "Hg30 mi
12:00 PM-13 °FSunny.2 mph69%29.61 "Hg30 mi
11:00 AM-15 °FSunny.2 mph63%29.61 "Hg30 mi
10:00 AM-13 °FSnow flurries. Sunny.9 mph63%29.60 "Hg30 mi
9:00 AM-20 °FSunny.No wind68%29.59 "Hg30 mi
8:00 AM-17 °FSunny.9 mph63%29.58 "Hg30 mi
7:00 AM-18 °FClear.10 mph62%29.57 "Hg30 mi
6:00 AM-18 °FClear.9 mph62%29.56 "Hg25 mi
5:00 AM-20 °FClear.2 mph68%29.55 "Hg15 mi
4:00 AM-22 °FClear.3 mph75%29.53 "Hg15 mi
3:00 AM-15 °FClear.9 mph69%29.52 "Hg15 mi
2:00 AM-18 °FClear.2 mph69%29.50 "Hg15 mi
1:00 AM-13 °FClear.5 mph69%29.49 "Hg15 mi
12:00 AM-9 °FSnow flurries. Clear.6 mph64%29.47 "Hg15 mi
11:00 PM
Sat, Mar 28
-6 °FSnow flurries. Clear.2 mph59%29.45 "Hg15 mi
10:00 PM-6 °FSnow flurries. Clear.6 mph59%29.44 "Hg15 mi
9:00 PM-4 °FSnow flurries. Clear.3 mph59%29.42 "Hg15 mi
Weather by CustomWeather, © 2015

See weather overviewHow to use our weather pages